sat.trackr.live / text

‹ back to catalog

STARLINK-30902

NORAD 58421 · 2023-180V

PAYLOAD ACTIVE UNKNOWN

§ Identity

Operator
Country
US
Launch date
2023-11-22
Launch site
AFETR
Launch vehicle
Mass (kg)
RCS (m²)

Purposes: comms

External: N2YO · Heavens-Above · Gunter

§ Orbital elements

Epoch: 2026-05-24T21:52:40.560384Z

Period
94.27 min
Inclination
43.0030°
Eccentricity
0.0001030
Mean motion
15.27577648 rev/d
Perigee alt
482.3 km
Apogee alt
483.8 km
Semi-major
6,861.2 km
B*
2.0382e-5
RAAN
342.0425°
Arg perigee
279.5073°
Mean anomaly
80.5662°
Rev number
13,917

§ Raw data

STARLINK-309021 58421U 23180V   26144.91158056  .00000299  00000+0  20382-4 0  99942 58421  43.0030 342.0425 0001030 279.5073  80.5662 15.27577648139179

JSON: /api/v1/satellites/58421 · /tle

For live sub-satellite position, see the globe view (requires WebGL).

§ Visibility from observer

Set your observer location to see the next 7 days of passes ≥ 10°. The values pass through the URL so the page stays shareable.

No JS? Fill the form by hand. The geolocation button needs JavaScript.